Regional Weather Roundup
Issued by NWS

Home | Current Version | Previous Version | Text Only | Print | Product List | Glossary Off
Versions: 1 2 3 4 5 6 7 8 9 10 11 12 13 14 15 16 17 18 19 20 21 22 23 24 25 26 27 28 29 30 31 32 33 34 35 36 37 38 39 40 41 42 43 44 45 46 47 48 49 50

064
ASUS43 KIND 240559
RWRIN

WEATHER ROUNDUP FOR INDIANA
NATIONAL WEATHER SERVICE INDIANAPOLIS IN
200 AM EDT WED MAY 24 2017

NOTE: "FAIR" INDICATES FEW OR NO CLOUDS BELOW 12,000 FEET WITH NO
SIGNIFICANT WEATHER AND/OR OBSTRUCTIONS TO VISIBILITY.

* - STATION DOES NOT REPORT WEATHER SUCH AS PRECIPITATION OR FOG.

+ - STATION NOT QUALITY CONTROLLED BY THE NATIONAL WEATHER SERVICE.
    USE DATA WITH CAUTION...ESPECIALLY DEWPOINT AND RELATIVE
    HUMIDITY OBSERVATIONS.

INZ001>003-010>013-019-020-240700-
NORTHWEST INDIANA

CITY           SKY/WX    TMP DP  RH WIND       PRES   REMARKS
MICHIGAN CITY+ LGT RAIN  54  54 100 NE5       29.65F
MONTICELLO +   CLOUDY    58  56  94 N8        29.60F
6HR MIN TEMP:  58; 6HR MAX TEMP:  66;

RENSSELAER +   CLOUDY    57  54  88 NW6       29.62F

$$

LMZ046-743>745-240700-
SOUTHERN LAKE MICHIGAN

STATION/POSITION TIME  TEMP    WIND        PRES    WAVE
                       AIR SEA DIR/SP/G            HT
                 (UTC) (F)     (DEG/KT/KT) (MB)    (FT)
BURNS HARBOR     0540   55      60/  7/  9 1004.7F
MICHIGAN CITY    0530   54      40/ 10/ 11   N/A
5NW MICH CITY    0550   54 53   50/  8/ 10   N/A     1

$$

INZ004-005-014>016-021>024-240700-
NORTH CENTRAL INDIANA

CITY           SKY/WX    TMP DP  RH WIND       PRES   REMARKS
GOSHEN         CLOUDY    59  53  80 E6        29.63F
6HR MIN TEMP:  59; 6HR MAX TEMP:  62;

SOUTH BEND     CLOUDY    57  54  89 NE6       29.64F
6HR MIN TEMP:  56; 6HR MAX TEMP:  61; 6HR PCP: TRACE;


$$

INZ006>009-017-018-025>027-240700-
NORTHEAST INDIANA

CITY           SKY/WX    TMP DP  RH WIND       PRES   REMARKS
ANGOLA *+        N/A     57  54  88 E6        29.64F
FORT WAYNE     CLOUDY    61  50  67 NE8       29.62F
6HR MIN TEMP:  61; 6HR MAX TEMP:  70;

KENDALLVILLE + CLOUDY    58  53  83 E8        29.64F

$$

INZ028-029-035-036-043>045-051>053-240700-
WEST CENTRAL INDIANA

CITY           SKY/WX    TMP DP  RH WIND       PRES   REMARKS
CRAWFORDSVL +  CLOUDY    57  56  98 NW7       29.61S
6HR MIN TEMP:  57; 6HR MAX TEMP:  66;

GREENCASTLE +  CLOUDY    61  52  72 W3        29.62S
LAFAYETTE      CLOUDY    58  55  90 N5        29.60F
6HR MIN TEMP:  58; 6HR MAX TEMP:  67;

TERRE HAUTE    CLOUDY    62  54  74 NW8G18    29.62F
6HR MIN TEMP:  62; 6HR MAX TEMP:  70;


$$

INZ030>032-037>040-046>048-054>057-064-065-240700-
CENTRAL INDIANA

CITY           SKY/WX    TMP DP  RH WIND       PRES   REMARKS
INDIANAPOLIS   CLOUDY    63  51  65 CALM      29.59F
6HR MIN TEMP:  62; 6HR MAX TEMP:  69;

-EAGLE CREEK   CLOUDY    63  52  67 CALM      29.59F
6HR MIN TEMP:  62; 6HR MAX TEMP:  71;

KOKOMO +       CLOUDY    60  55  83 NE6       29.60F
6HR MIN TEMP:  60; 6HR MAX TEMP:  70; 6HR PCP: TRACE;

SHELBYVILLE    CLOUDY    63  54  72 SW6       29.60F
6HR MIN TEMP:  63; 6HR MAX TEMP:  71;


$$

INZ033-034-041-042-049-050-058-059-240700-
EAST CENTRAL INDIANA

CITY           SKY/WX    TMP DP  RH WIND       PRES   REMARKS
MUNCIE         CLOUDY    63  55  75 SE5       29.60F
6HR MIN TEMP:  63; 6HR MAX TEMP:  72;

RICHMOND +     CLOUDY    61  55  82 S7        29.63F

$$

INZ060-061-067>069-081>083-085>088-240700-
SOUTHWEST INDIANA

CITY           SKY/WX    TMP DP  RH WIND       PRES   REMARKS
EVANSVILLE     CLOUDY    66  55  67 NW5       29.62F
6HR MIN TEMP:  66; 6HR MAX TEMP:  73;

HUNTINGBURG *+ CLOUDY    63  56  78 CALM      29.61F
6HR MIN TEMP:  62; 6HR MAX TEMP:  71;


$$

INZ062-063-066-070>080-084-089>092-240700-
SOUTH CENTRAL AND SOUTHEAST INDIANA

CITY           SKY/WX    TMP DP  RH WIND       PRES   REMARKS
BLOOMINGTON    CLOUDY    62  56  80 CALM      29.60F
6HR MIN TEMP:  62; 6HR MAX TEMP:  70;

MADISON *+     CLOUDY    63  59  88 CALM      29.62F
SEYMOUR +      CLOUDY    64  55  72 W3        29.60F

$$





USA.gov is the U.S. government's official web portal to all federal, state and local government web resources and services.